PA3DZX-13 Weather Reports


time (UTC)temp
F
wind
direction
speed
knots
gust
knots
rain 1hr
in
rain 24hr
in
rain mn
in
humidity
%
barometer
mb
20260903082416 64 214 9.6 13.0 0.00 0.00 0.00 77 1015.2
20260903080916 64 212 11.3 17.4 0.00 0.00 0.00 77 1015.1
20260903075415 64 216 9.6 14.8 0.00 0.00 0.00 78 1015.2
20260903073915 64 221 9.6 17.4 0.00 0.00 0.00 76 1015.3
20260903072415 64 213 11.3 17.4 0.00 0.00 0.00 75 1015.1
20260903070913 64 213 11.3 17.4 0.00 0.00 0.00 75 1015.1
20260903065412 64 213 7.0 14.8 0.00 0.00 0.00 75 1015.4
20260903063912 62 215 7.0 11.3 0.00 0.00 0.00 76 1015.6
20260903062411 62 217 7.0 14.8 0.00 0.00 0.00 75 1015.6
20260903060910 62 215 9.6 14.8 0.00 0.00 0.00 77 1015.6
20260903055409 62 211 9.6 13.0 0.00 0.00 0.00 77 1015.6
20260903053910 62 207 7.0 13.0 0.00 0.00 0.00 79 1015.6
20260903052409 60 213 7.0 13.0 0.00 0.00 0.00 83 1015.4
20260903050909 60 206 9.6 19.1 0.00 0.00 0.00 82 1015.5
20260903045409 62 205 7.0 13.0 0.00 0.00 0.00 78 1015.6
20260903043908 62 202 7.0 13.0 0.00 0.00 0.00 79 1015.5
20260903042408 62 204 7.0 13.0 0.00 0.00 0.00 80 1015.6
20260903040907 60 195 7.0 11.3 0.00 0.00 0.00 80 1015.9
20260903035407 60 189 7.0 11.3 0.00 0.00 0.00 80 1015.9
20260903033907 60 196 7.0 13.0 0.00 0.00 0.00 81 1016.4
20260903032407 60 198 7.0 14.8 0.00 0.00 0.00 82 1016.4
20260903030907 60 200 7.0 13.0 0.00 0.00 0.00 81 1016.4
20260903025407 60 201 7.0 13.0 0.00 0.00 0.00 82 1016.6
20260903023907 60 197 3.5 9.6 0.00 0.00 0.00 86 1016.8
20260903022407 60 197 3.5 9.6 0.00 0.00 0.00 86 1016.8
20260903020907 60 210 9.6 20.9 0.00 0.00 0.00 83 1017.0
20260903015407 60 211 5.2 13.0 0.00 0.00 0.00 80 1017.4
20260903013905 62 214 7.0 11.3 0.00 0.00 0.00 79 1017.3
20260903012405 62 214 7.0 11.3 0.00 0.00 0.00 79 1017.5
20260903010905 62 224 9.6 14.8 0.00 0.00 0.00 74 1017.8
20260903005405 62 212 5.2 11.3 0.00 0.00 0.00 74 1017.7
20260903003904 62 214 9.6 14.8 0.00 0.00 0.00 73 1017.8
20260903002405 62 206 9.6 13.0 0.00 0.00 0.00 72 1017.8
20260903000903 62 194 5.2 9.6 0.00 0.00 0.00 75 1017.9
20260902235403 62 191 5.2 9.6 0.00 0.00 0.00 76 1018.0
20260902233903 62 195 5.2 11.3 0.00 0.00 0.00 75 1018.1
20260902232403 60 179 5.2 7.0 0.00 0.00 0.00 82 1018.2
20260902230903 60 176 5.2 7.0 0.00 0.00 0.00 83 1018.3
20260902225404 60 178 5.2 7.0 0.00 0.00 0.00 83 1018.7
20260902223902 60 173 3.5 7.0 0.00 0.00 0.00 86 1018.8
20260902222403 60 174 3.5 7.0 0.00 0.00 0.00 87 1018.9
20260902220902 60 189 3.5 7.0 0.03 0.00 0.00 86 1019.0
20260902215402 60 194 3.5 7.0 0.01 0.00 0.00 85 1019.0
20260902213901 60 196 3.5 5.2 0.00 0.00 0.00 82 1019.1
20260902212401 60 191 3.5 5.2 0.00 0.00 0.00 82 1019.0
20260902210901 60 197 3.5 5.2 0.00 0.00 0.00 82 1019.2
20260902205359 60 201 3.5 5.2 0.00 0.00 0.00 82 1019.2
20260902203859 60 199 3.5 7.0 0.00 0.00 0.00 83 1019.3
20260902202358 60 196 3.5 5.2 0.00 0.00 0.00 83 1019.3
20260902200857 60 201 3.5 7.0 0.00 0.00 0.00 83 1019.4
20260902195356 62 196 3.5 7.0 0.00 0.00 0.00 83 1019.4
20260902193855 60 197 3.5 7.0 0.00 0.00 0.00 84 1019.5
20260902192355 62 187 3.5 5.2 0.00 0.00 0.00 83 1019.5
20260902190855 62 192 5.2 9.6 0.00 0.00 0.00 82 1019.6
20260902185355 62 205 7.0 11.3 0.02 0.00 0.00 78 1019.6
20260902183855 64 205 3.5 5.2 0.00 0.00 0.00 74 1019.6
20260902182355 62 201 1.7 3.5 0.00 0.00 0.00 75 1019.4
20260902180854 64 210 3.5 5.2 0.00 0.00 0.00 72 1019.2
20260902175354 64 211 1.7 3.5 0.00 0.00 0.00 72 1019.2
20260902173854 64 225 3.5 5.2 0.00 0.00 0.00 69 1019.2
20260902172353 64 222 3.5 9.6 0.00 0.00 0.00 69 1019.3
20260902170853 66 244 7.0 9.6 0.00 0.00 0.00 64 1019.2
20260902165352 68 238 5.2 9.6 0.00 0.00 0.00 58 1019.2
20260902163852 66 233 5.2 9.6 0.00 0.00 0.00 59 1019.4
20260902162352 66 235 3.5 7.0 0.00 0.00 0.00 61 1019.4
20260902160850 64 225 3.5 9.6 0.00 0.00 0.00 64 1019.6
20260902155350 64 216 5.2 9.6 0.00 0.00 0.00 61 1019.6
20260902153849 64 222 5.2 14.8 0.00 0.00 0.00 61 1019.6
20260902152348 64 244 9.6 14.8 0.00 0.00 0.00 62 1019.9
20260902150848 66 257 14.8 19.1 0.00 0.00 0.00 64 1019.9
20260902145348 66 265 11.3 19.1 0.00 0.00 0.00 63 1019.8
20260902143847 68 273 7.0 11.3 0.00 0.00 0.00 59 1019.6
20260902142346 69 233 9.6 13.0 0.00 0.00 0.00 62 1019.4
20260902140845 69 223 9.6 14.8 0.00 0.00 0.00 60 1019.6
20260902135344 69 223 9.6 14.8 0.00 0.00 0.00 60 1019.6
20260902133844 69 223 9.6 14.8 0.00 0.00 0.00 60 1019.6
20260902132343 69 223 9.6 14.8 0.00 0.00 0.00 60 1019.6
20260902130842 69 223 9.6 14.8 0.00 0.00 0.00 60 1019.6
20260902125341 69 223 9.6 14.8 0.00 0.00 0.00 60 1019.6
20260902123841 69 223 9.6 14.8 0.00 0.00 0.00 60 1019.6
20260902122341 69 229 9.6 14.8 0.00 0.00 0.00 57 1019.6
20260902120840 69 226 9.6 13.0 0.00 0.00 0.00 59 1019.6
20260902115340 69 222 9.6 11.3 0.00 0.00 0.00 58 1019.6
20260902113839 69 231 7.0 14.8 0.00 0.00 0.00 56 1019.8
20260902112338 69 231 7.0 14.8 0.00 0.00 0.00 56 1019.8
20260902110836 69 224 7.0 13.0 0.00 0.00 0.00 56 1020.0
20260902105336 68 229 9.6 13.0 0.00 0.00 0.00 56 1020.0
20260902103835 68 226 9.6 14.8 0.00 0.00 0.00 54 1020.0
20260902102334 68 226 9.6 14.8 0.00 0.00 0.00 54 1020.0
20260902100834 68 238 9.6 14.8 0.00 0.00 0.00 57 1020.0
20260902095333 68 222 9.6 13.0 0.00 0.00 0.00 59 1020.0
20260902093833 68 233 9.6 13.0 0.00 0.00 0.00 61 1019.9
20260902092332 66 231 9.6 14.8 0.00 0.00 0.00 64 1019.9
20260902090831 66 224 7.0 14.8 0.00 0.00 0.00 64 1019.9
20260902085331 64 237 7.0 13.0 0.00 0.00 0.00 66 1019.8
20260902083830 64 227 7.0 11.3 0.00 0.00 0.00 68 1019.7